Total_Precipitation_Accumulation
2.26 2.32 2.29 2.31 2.12 2.28 2.60 2.69 2.54 2.74 2.82 2.62 2.39 2.12 2.00 1.85 1.74 1.75 1.85 1.74 1.60 1.66 1.95 2.06 1.90 1.75 1.60 1.41 1.25 1.17 1.12 1.03 0.99 0.85 0.71 0.69 0.77 0.74 0.63 0.57 0.52 0.44 0.42
2.65 2.75 2.59 2.55 2.38 2.35 2.56 2.68 2.69 3.22 3.16 3.01 2.52 2.22 2.13 2.06 1.90 1.94 2.00 2.06 1.75 1.59 1.74 2.06 2.20 2.14 1.98 1.76 1.55 1.41 1.28 1.18 1.06 0.83 0.70 0.66 0.74 0.81 0.76 0.70 0.60 0.48 0.38
2.73 2.83 2.81 2.68 2.56 2.49 2.67 2.73 2.93 3.20 2.95 2.82 2.54 2.36 2.24 2.10 1.90 1.90 2.13 2.32 2.06 1.77 1.66 1.79 2.12 2.28 2.28 2.24 2.10 1.80 1.49 1.28 1.15 0.93 0.75 0.68 0.71 0.80 0.78 0.78 0.73 0.55 0.39
2.71 2.86 2.68 2.54 2.73 2.79 2.93 3.13 3.20 3.21 3.10 2.99 2.77 2.41 2.23 2.19 1.75 1.71 1.81 1.96 2.09 1.80 1.89 2.03 2.20 2.27 2.43 2.54 2.54 2.45 2.10 1.64 1.37 1.16 0.95 0.81 0.82 0.85 0.79 0.76 0.73 0.59 0.44
2.55 2.76 2.67 2.73 2.86 2.95 3.02 2.77 3.22 3.22 3.21 3.09 2.56 2.32 2.04 1.94 1.81 1.54 1.52 1.51 1.65 1.68 1.73 1.85 2.05 2.03 2.37 2.75 2.91 2.99 2.86 2.36 1.84 1.54 1.40 1.21 1.10 0.99 0.86 0.79 0.74 0.64 0.51
2.69 2.89 2.80 2.84 2.93 3.08 3.12 3.11 3.33 3.28 3.08 3.04 2.38 2.17 1.93 1.58 1.58 1.52 1.33 1.34 1.42 1.35 1.43 1.70 2.02 1.72 2.07 2.48 2.70 3.01 3.27 3.11 2.59 2.13 1.95 1.80 1.62 1.35 1.08 0.97 0.91 0.83 0.70
2.87 3.13 2.98 3.14 3.11 2.97 2.98 3.13 3.33 3.13 2.90 2.98 2.88 2.31 1.75 1.43 1.44 1.35 1.41 1.50 1.40 1.40 1.60 1.93 2.11 1.97 1.79 1.85 1.89 2.26 2.92 3.39 3.30 2.82 2.46 2.19 2.08 1.93 1.48 1.32 1.23 1.13 1.00
2.81 2.77 2.97 2.86 2.91 3.04 2.99 3.03 3.26 3.05 2.64 2.77 2.94 2.81 2.11 1.82 1.45 1.11 1.36 1.43 1.47 1.66 1.74 1.82 2.14 2.32 2.15 2.27 1.78 1.71 2.34 3.09 3.51 3.46 3.03 2.66 2.45 2.29 1.95 1.80 1.59 1.34 1.20
2.45 2.53 2.60 2.68 2.96 2.97 2.98 3.05 3.03 2.89 2.59 2.53 2.66 2.84 2.34 1.94 1.58 1.16 1.10 1.35 1.68 1.83 1.74 1.85 1.98 2.18 2.34 2.60 2.48 2.10 1.98 2.18 2.84 3.52 3.53 3.18 2.71 2.36 2.32 2.38 2.17 1.73 1.41
2.40 2.40 2.42 2.47 2.55 2.54 2.64 2.41 2.52 2.72 2.83 2.53 2.57 2.49 2.34 2.19 2.08 1.65 1.33 1.30 1.56 1.72 1.83 1.75 1.76 1.95 2.30 2.74 2.85 2.40 2.00 1.76 1.99 2.84 3.45 3.53 3.14 2.70 2.59 2.67 2.83 2.51 1.92
2.43 2.40 2.37 2.35 2.23 2.17 2.30 2.29 2.43 2.47 2.47 2.41 2.43 2.48 2.48 2.39 2.24 2.12 1.83 1.69 1.66 1.46 1.52 1.58 1.64 1.76 2.04 2.46 2.68 2.38 2.27 2.02 1.91 2.06 2.49 2.94 3.08 2.96 2.81 2.91 3.25 3.33 2.95
2.30 2.26 2.23 2.22 2.09 2.08 2.15 2.21 2.30 2.25 2.27 2.35 2.34 2.35 2.44 2.38 2.38 2.43 2.07 1.91 1.79 1.41 1.36 1.33 1.41 1.56 1.91 2.21 2.04 2.06 2.02 1.87 1.75 1.76 1.85 2.19 2.48 2.65 2.76 3.01 3.45 3.83 3.87
1.88 1.96 1.89 1.96 1.95 1.98 2.01 2.09 2.17 2.14 2.22 2.32 2.25 2.27 2.27 2.19 2.27 2.38 2.31 2.01 1.83 1.53 1.54 1.45 1.39 1.54 1.63 1.97 1.91 1.74 1.52 1.45 1.35 1.36 1.36 1.52 1.76 1.96 2.18 2.48 2.92 3.38 3.70
1.57 1.75 1.89 1.92 1.91 1.90 1.92 2.10 1.99 1.98 2.13 2.17 2.12 2.42 2.28 2.07 2.16 2.26 2.40 2.46 2.18 1.81 1.80 1.67 1.56 1.58 1.67 1.73 1.64 1.53 1.36 1.26 1.14 1.08 1.06 1.09 1.16 1.29 1.48 1.72 2.02 2.27 2.53
1.61 1.69 1.77 1.89 1.93 2.00 2.08 2.12 1.99 2.11 2.34 2.23 2.29 2.47 2.34 2.21 2.20 2.21 2.41 2.64 2.61 2.26 1.96 1.80 1.67 1.52 1.55 1.51 1.54 1.46 1.38 1.28 1.11 1.02 0.97 0.93 0.92 0.95 1.04 1.18 1.37 1.55 1.68
1.64 1.59 1.60 1.69 1.70 1.76 1.89 2.02 1.96 2.07 2.30 2.24 2.23 2.32 2.28 2.23 2.43 2.41 2.47 2.62 2.75 2.61 2.09 1.87 1.79 1.50 1.60 1.32 1.40 1.37 1.33 1.28 1.10 0.98 0.93 0.90 0.89 0.90 0.90 0.94 1.04 1.18 1.34
1.61 1.56 1.57 1.58 1.54 1.50 1.57 1.73 1.74 1.93 1.95 1.92 1.88 1.96 1.94 2.15 2.33 2.28 2.37 2.45 2.57 2.67 2.27 2.02 2.09 1.90 1.89 1.68 1.51 1.39 1.22 1.23 1.12 1.06 0.97 0.90 0.87 0.87 0.89 0.88 0.88 0.95 1.06
1.49 1.57 1.63 1.52 1.38 1.41 1.50 1.52 1.59 1.78 1.84 1.82 1.84 1.91 1.82 1.97 2.08 2.11 2.26 2.34 2.50 2.73 2.53 2.30 2.29 2.26 2.16 1.98 1.81 1.62 1.27 1.10 1.13 1.20 1.05 0.94 0.90 0.89 0.93 0.93 0.89 0.86 0.88
1.37 1.44 1.47 1.40 1.36 1.45 1.60 1.69 1.77 1.80 1.71 1.70 1.67 1.63 1.61 1.78 1.81 1.93 2.07 2.07 2.18 2.50 2.55 2.29 2.19 2.44 2.33 2.13 2.16 1.87 1.64 1.58 1.19 1.17 1.10 0.94 0.90 0.87 0.89 0.95 0.96 0.90 0.86
1.37 1.43 1.46 1.55 1.60 1.61 1.58 1.59 1.63 1.72 1.71 1.59 1.44 1.33 1.37 1.52 1.57 1.68 1.71 1.83 1.96 2.13 2.32 2.28 2.19 2.34 2.40 2.29 2.46 2.24 2.03 1.87 1.55 1.26 1.26 1.05 0.97 0.94 0.92 0.92 0.94 0.97 0.99
1.31 1.45 1.60 1.69 1.72 1.65 1.48 1.52 1.59 1.49 1.50 1.43 1.29 1.14 1.07 1.10 1.16 1.29 1.27 1.47 1.71 1.88 1.96 2.10 2.14 2.24 2.46 2.54 2.42 2.40 2.24 2.05 1.90 1.76 1.74 1.34 1.07 0.96 0.96 0.96 0.98 1.03 1.07
1.30 1.44 1.48 1.53 1.52 1.34 1.40 1.31 1.26 1.27 1.29 1.29 1.30 1.26 1.11 1.01 0.98 1.02 1.05 1.11 1.25 1.41 1.61 1.86 1.94 2.04 2.28 2.55 2.58 2.61 2.51 2.29 2.08 1.92 2.06 2.02 1.68 1.41 1.22 1.00 1.00 1.03 1.11
1.36 1.36 1.32 1.35 1.38 1.47 1.35 1.15 1.10 1.09 1.20 1.24 1.28 1.26 1.06 0.94 0.99 0.96 1.01 1.02 1.07 1.10 1.17 1.40 1.54 1.60 1.85 2.17 2.51 2.55 2.62 2.46 2.23 2.20 2.34 2.41 2.47 2.24 1.68 1.33 1.26 1.11 1.14
1.42 1.38 1.26 1.25 1.27 1.27 1.25 1.13 1.11 1.03 1.08 1.16 1.21 1.23 1.23 1.18 1.09 1.11 1.13 1.08 0.99 1.01 1.03 0.99 1.05 1.25 1.42 1.67 2.05 2.24 2.54 2.72 2.57 2.49 2.56 2.64 2.65 2.86 2.37 1.83 1.65 1.40 1.33
1.43 1.47 1.36 1.30 1.29 1.28 1.26 1.12 1.08 1.02 1.10 1.17 1.25 1.25 1.23 1.17 1.18 1.13 1.14 1.14 1.03 0.97 0.95 0.94 0.91 1.01 1.20 1.34 1.63 1.98 2.26 2.46 2.55 2.63 2.69 2.76 2.67 2.81 3.10 2.64 1.96 1.61 1.38
1.59 1.62 1.55 1.49 1.52 1.53 1.56 1.36 1.24 1.10 1.15 1.22 1.35 1.34 1.21 1.08 1.14 1.08 0.99 1.04 1.04 1.03 1.08 1.04 1.02 1.05 1.11 1.27 1.52 1.79 2.04 2.30 2.34 2.41 2.28 2.26 2.28 2.42 2.85 3.05 2.68 2.07 1.61